Location: Newark
(48.6800°N, 2.9300°W)
Time: 05:21:52
(UTC+00:00)

Envisat - Visible Passes

Search period start: 18 August 2019 00:00
Search period end: 28 August 2019 00:00
Orbit: 764 x 766 km, 98.1° (Epoch: 17 August)

Date Brightness Start Highest point End Pass type
(mag) Time Alt. Az. Time Alt. Az. Time Alt. Az.
18 Aug 5.9 19:52:44 10° WSW 19:55:37 15° W 19:58:31 10° NW visible
23 Aug 6.3 20:08:47 10° W 20:10:06 11° W 20:11:26 10° WNW visible
26 Aug 6.0 19:56:07 10° WSW 19:58:41 14° W 20:01:16 10° NW visible
